When you browse on this site, cookies collect data to enhance your experience and personalize the content and advertising you see.
Visit our Privacy Policy to learn more. By continuing to use the site, you agree to this use of cookies and data.
  • In Spain
  • List of Countries
  • For 7 days
  • Water Temperature
  • Weather Map
  • Weather Widgets
  • user-avatar
    Login

    Hourly Weather Canillo

    Today, 16 December, Monday

    Time Temperature Precipitation Wind Pressure Humidity
    00:00 +1°C° 0 mm 2 mps 612 mmHg 61%
    01:00 0°C° 0 mm 3 mps 611 mmHg 65%
    02:00 0°C° 0 mm 3 mps 611 mmHg 68%
    03:00 0°C° 0 mm 3 mps 611 mmHg 71%
    04:00 0°C° 0 mm 3 mps 611 mmHg 73%
    05:00 0°C° 0 mm 3 mps 611 mmHg 75%
    06:00 0°C° 0 mm 3 mps 610 mmHg 77%
    07:00 +1°C° 0 mm 3 mps 611 mmHg 75%
    08:00 +2°C° 0 mm 3 mps 611 mmHg 73%
    09:00 +3°C° 0 mm 4 mps 611 mmHg 70%
    10:00 +4°C° 0 mm 4 mps 611 mmHg 68%
    11:00 +5°C° 0 mm 4 mps 611 mmHg 65%
    12:00 +6°C° 0 mm 4 mps 611 mmHg 63%
    13:00 +5°C° 0 mm 4 mps 611 mmHg 69%
    14:00 +5°C° 0 mm 4 mps 610 mmHg 75%
    15:00 +4°C° 0 mm 4 mps 609 mmHg 81%
    16:00 +4°C° 0 mm 4 mps 609 mmHg 82%
    17:00 +3°C° 0 mm 4 mps 608 mmHg 83%
    18:00 +1°C° 0 mm 4 mps 608 mmHg 84%
    19:00 +1°C° 0 mm 4 mps 608 mmHg 83%
    20:00 +1°C° 0 mm 4 mps 608 mmHg 82%
    21:00 +1°C° 0 mm 4 mps 608 mmHg 80%
    22:00 0°C° 0.2 mm 4 mps 608 mmHg 82%
    23:00 0°C° 0.2 mm 4 mps 607 mmHg 84%

    Tomorrow, 17 December, Tuesday

    Time Temperature Precipitation Wind Pressure Humidity
    00:00 0°C° 0.2 mm 4 mps 607 mmHg 86%
    01:00 0°C° 0.9 mm 4 mps 607 mmHg 87%
    02:00 +1°C° 0.9 mm 3 mps 607 mmHg 88%
    03:00 0°C° 0.9 mm 3 mps 607 mmHg 89%
    04:00 0°C° 0 mm 3 mps 606 mmHg 89%
    05:00 0°C° 0 mm 3 mps 606 mmHg 88%
    06:00 0°C° 0 mm 3 mps 606 mmHg 88%
    07:00 +1°C° 0 mm 3 mps 606 mmHg 88%
    08:00 +2°C° 0 mm 3 mps 607 mmHg 87%
    09:00 +2°C° 0 mm 3 mps 608 mmHg 87%
    10:00 +3°C° 0.2 mm 3 mps 608 mmHg 85%
    11:00 +3°C° 0.2 mm 4 mps 608 mmHg 83%
    12:00 +4°C° 0.2 mm 4 mps 608 mmHg 82%
    13:00 +3°C° 1.4 mm 3 mps 608 mmHg 86%
    14:00 +2°C° 1.4 mm 3 mps 608 mmHg 90%
    15:00 +2°C° 1.4 mm 2 mps 608 mmHg 95%
    16:00 +2°C° 1.4 mm 2 mps 608 mmHg 95%
    17:00 +2°C° 1.4 mm 2 mps 608 mmHg 95%
    18:00 +1°C° 1.4 mm 2 mps 609 mmHg 95%
    19:00 +1°C° 0.6 mm 2 mps 609 mmHg 95%
    20:00 +2°C° 0.6 mm 1 mps 609 mmHg 96%
    21:00 +2°C° 0.6 mm 1 mps 610 mmHg 96%
    22:00 +2°C° 0.3 mm 1 mps 610 mmHg 96%
    23:00 +2°C° 0.3 mm 1 mps 610 mmHg 96%

    Day after tomorrow, 18 December, Wednesday

    Time Temperature Precipitation Wind Pressure Humidity
    00:00 +2°C° 0.3 mm 1 mps 610 mmHg 96%
    01:00 +2°C° 0.1 mm 1 mps 610 mmHg 96%
    02:00 +2°C° 0.1 mm 1 mps 610 mmHg 96%
    03:00 +2°C° 0.1 mm 1 mps 611 mmHg 96%
    04:00 +2°C° 0 mm 1 mps 610 mmHg 96%
    05:00 +2°C° 0 mm 1 mps 610 mmHg 95%
    06:00 +1°C° 0 mm 1 mps 610 mmHg 94%
    07:00 +2°C° 0 mm 1 mps 611 mmHg 92%
    08:00 +2°C° 0 mm 1 mps 611 mmHg 90%
    09:00 +3°C° 0 mm 1 mps 612 mmHg 88%
    10:00 +4°C° 0 mm 1 mps 612 mmHg 86%
    11:00 +5°C° 0 mm 1 mps 612 mmHg 83%
    12:00 +6°C° 0 mm 1 mps 613 mmHg 81%
    13:00 +6°C° 0 mm 1 mps 612 mmHg 84%
    14:00 +4°C° 0 mm 2 mps 612 mmHg 87%
    15:00 +4°C° 0 mm 2 mps 612 mmHg 90%
    16:00 +3°C° 0 mm 2 mps 611 mmHg 91%
    17:00 +2°C° 0 mm 2 mps 611 mmHg 92%
    18:00 +1°C° 0 mm 2 mps 611 mmHg 93%
    19:00 -1°C° 0 mm 2 mps 611 mmHg 92%
    20:00 -1°C° 0 mm 2 mps 611 mmHg 92%
    21:00 -1°C° 0 mm 2 mps 611 mmHg 91%
    22:00 -1°C° 0 mm 2 mps 611 mmHg 90%
    23:00 -1°C° 0 mm 2 mps 611 mmHg 89%

    19 December, Thursday

    Time Temperature Precipitation Wind Pressure Humidity
    00:00 -1°C° 0 mm 3 mps 611 mmHg 89%
    01:00 -1°C° 0 mm 3 mps 611 mmHg 88%
    02:00 +1°C° 0 mm 2 mps 610 mmHg 88%
    03:00 +1°C° 0 mm 2 mps 610 mmHg 88%
    04:00 +1°C° 0.3 mm 2 mps 610 mmHg 90%
    05:00 +2°C° 0.3 mm 2 mps 610 mmHg 92%
    06:00 +2°C° 0.3 mm 2 mps 610 mmHg 95%
    07:00 +1°C° 0.8 mm 3 mps 610 mmHg 95%
    08:00 +1°C° 0.8 mm 3 mps 610 mmHg 95%
    09:00 +2°C° 0.8 mm 3 mps 609 mmHg 95%
    10:00 +1°C° 1.4 mm 4 mps 609 mmHg 94%
    11:00 +1°C° 1.4 mm 4 mps 608 mmHg 93%
    12:00 +1°C° 1.4 mm 4 mps 608 mmHg 92%
    13:00 +1°C° 1.6 mm 4 mps 608 mmHg 93%
    14:00 +1°C° 1.6 mm 4 mps 607 mmHg 94%
    15:00 0°C° 1.6 mm 4 mps 607 mmHg 95%
    16:00 0°C° 0.6 mm 3 mps 607 mmHg 95%
    17:00 0°C° 0.6 mm 3 mps 607 mmHg 95%
    18:00 -1°C° 0.6 mm 3 mps 607 mmHg 95%
    19:00 -2°C° 0 mm 3 mps 607 mmHg 94%
    20:00 -2°C° 0 mm 3 mps 607 mmHg 93%
    21:00 -4°C° 0 mm 3 mps 607 mmHg 93%
    22:00 -4°C° 0 mm 3 mps 606 mmHg 92%
    23:00 -4°C° 0 mm 3 mps 606 mmHg 92%

    20 December, Friday

    Time Temperature Precipitation Wind Pressure Humidity
    00:00 -4°C° 0 mm 3 mps 605 mmHg 91%
    01:00 -4°C° 1.8 mm 3 mps 604 mmHg 92%
    02:00 -3°C° 1.8 mm 4 mps 603 mmHg 93%
    03:00 -3°C° 1.8 mm 4 mps 602 mmHg 93%
    04:00 -2°C° 3 mm 3 mps 601 mmHg 94%
    05:00 -1°C° 3 mm 3 mps 601 mmHg 94%
    06:00 -1°C° 3 mm 3 mps 600 mmHg 95%
    07:00 -1°C° 0.2 mm 2 mps 601 mmHg 95%
    08:00 +1°C° 0.2 mm 2 mps 601 mmHg 95%
    09:00 +2°C° 0.2 mm 1 mps 602 mmHg 95%
    10:00 +2°C° 0 mm 1 mps 602 mmHg 95%
    11:00 +2°C° 0 mm 2 mps 602 mmHg 95%
    12:00 +2°C° 0 mm 2 mps 603 mmHg 94%
    13:00 +3°C° 0 mm 1 mps 603 mmHg 94%
    14:00 +2°C° 0 mm 1 mps 603 mmHg 95%
    15:00 +2°C° 0 mm 1 mps 603 mmHg 95%
    16:00 +1°C° 0.1 mm 1 mps 603 mmHg 95%
    17:00 +1°C° 0.1 mm 1 mps 603 mmHg 96%
    18:00 -1°C° 0.1 mm 0 mps 603 mmHg 97%
    19:00 0°C° 0.3 mm 1 mps 603 mmHg 97%
    20:00 -1°C° 0.3 mm 1 mps 603 mmHg 97%
    21:00 -1°C° 0.3 mm 1 mps 604 mmHg 97%
    22:00 -1°C° 0.6 mm 1 mps 604 mmHg 96%
    23:00 -3°C° 0.6 mm 2 mps 604 mmHg 96%

    21 December, Saturday

    Time Temperature Precipitation Wind Pressure Humidity
    00:00 -3°C° 0.6 mm 2 mps 605 mmHg 95%
    01:00 -4°C° 0.5 mm 2 mps 605 mmHg 95%
    02:00 -4°C° 0.5 mm 2 mps 605 mmHg 94%
    03:00 -4°C° 0.5 mm 2 mps 606 mmHg 94%
    04:00 -5°C° 0.3 mm 2 mps 606 mmHg 93%
    05:00 -5°C° 0.3 mm 2 mps 606 mmHg 93%
    06:00 -5°C° 0.3 mm 2 mps 607 mmHg 93%
    07:00 -5°C° 0.1 mm 2 mps 608 mmHg 92%
    08:00 -4°C° 0.1 mm 2 mps 609 mmHg 92%
    09:00 -4°C° 0.1 mm 2 mps 610 mmHg 91%
    10:00 -3°C° 0 mm 2 mps 610 mmHg 89%
    11:00 -2°C° 0 mm 2 mps 611 mmHg 88%
    12:00 -1°C° 0 mm 2 mps 611 mmHg 86%
    13:00 -1°C° 0 mm 2 mps 611 mmHg 88%
    14:00 -1°C° 0 mm 2 mps 611 mmHg 89%
    15:00 -1°C° 0 mm 2 mps 611 mmHg 90%
    16:00 -3°C° 0 mm 2 mps 611 mmHg 89%
    17:00 -4°C° 0 mm 2 mps 611 mmHg 88%
    18:00 -5°C° 0 mm 2 mps 611 mmHg 87%
    19:00 -5°C° 0 mm 2 mps 611 mmHg 81%
    20:00 -5°C° 0 mm 2 mps 612 mmHg 74%
    21:00 -5°C° 0 mm 2 mps 612 mmHg 67%
    22:00 -4°C° 0 mm 2 mps 613 mmHg 64%
    23:00 -3°C° 0 mm 2 mps 613 mmHg 62%
    Show more